Regional Weather Roundup
Issued by NWS

Home | Current Version | Previous Version | Text Only | Print | Product List | Glossary Off
Versions: 1 2 3 4 5 6 7 8 9 10 11 12 13 14 15 16 17 18 19 20 21 22 23 24 25 26 27 28 29 30 31 32 33 34 35 36 37 38 39 40 41 42 43 44 45 46 47 48 49 50

000
ASUS43 KMPX 031010
RWRMN
WEATHER ROUNDUP FOR MINNESOTA
NATIONAL WEATHER SERVICE TWIN CITIES/CHANHASSEN MN
500 AM CDT WED JUN 03 2015


NOTE: "FAIR" INDICATES FEW OR NO CLOUDS BELOW 12,000 FEET WITH NO
SIGNIFICANT WEATHER AND/OR OBSTRUCTIONS TO VISIBILITY. N/A MEANS
CURRENT SKY AND/OR WEATHER CONDITIONS ARE NOT AVAILABLE.

MNZ060>063-068>070-031100-
   Twin Cities Metro

CITY           SKY/WX    TMP DP  RH WIND       PRES   REMARKS
TWIN CITIES    CLOUDY    65  55  70 S10       29.89S
ST PAUL        CLOUDY    64  55  72 S10       29.90R
CRYSTAL        CLOUDY    67  55  65 S12       29.87S
BLAINE         CLOUDY    66  55  68 S9        29.88F
LAKEVILLE      CLOUDY    63  55  77 S12       29.89F
EDEN PRAIRIE   CLOUDY    65  55  70 S9        29.88R
SOUTH ST PAUL  CLOUDY    64  54  69 S7        29.90S
LAKE ELMO      CLOUDY    63  55  77 S9        29.92R
$$
MNZ001>005-007-008-013>017-022>024-027-028-031100-
   Northwest Minnesota

CITY           SKY/WX    TMP DP  RH WIND       PRES   REMARKS
BEMIDJI        MOCLDY    60  57  89 S8        29.74F
HALLOCK        CLOUDY    55  54  94 N8        29.78S
ROSEAU         CLOUDY    59  54  82 NE12      29.79S HAZE
WARROAD        FOG       57  54  88 NE13G18   29.80S VSB 3/4
THIEF RVR FALL CLOUDY    59  57  94 NE10      29.75S
CROOKSTON      CLOUDY    59  59 100 NE8       29.73F
FOSSTON        MOCLDY    61  57  88 CALM      29.73S
DETROIT LAKES  MOCLDY    63  59  88 S9        29.74F
MOORHEAD       CLOUDY    64  61  88 S8        29.70F
PARK RAPIDS    CLOUDY    63  56  78 SE5       29.76F
MAHNOMEN       PTSUNNY   63  58  84 SE12      29.71F
$$
MNZ006-009>011-018-025>026-031100-
   North Central Minnesota

CITY           SKY/WX    TMP DP  RH WIND       PRES   REMARKS
BAUDETTE       CLOUDY    59  57  93 E7        29.79S
FLAG ISLAND    CLOUDY    57  55  94 NE10      29.80F
INTL FALLS     CLOUDY    57  56  96 NE3       29.81S FOG
WASKISH        CLOUDY    57  55  94 NE3       29.78R
BIG FORK       LGT RAIN  59  57  94 E12       29.75F
LONGVILLE      CLOUDY    63  55  77 E3        29.81R
GRAND RAPIDS   CLOUDY    57  54  88 SE3       29.84F
CRANE LAKE     LGT RAIN  55  55 100 SE6       29.84F
ORR            CLOUDY    55  54  94 SE10G17   29.78F
COOK           RAIN      55  55 100 SE5       29.84F
WALKER         FAIR      60  56  88 SE6       29.76F
$$
MNZ012-019>021-037-031100-
   Northeast Minnesota

CITY           SKY/WX    TMP DP  RH WIND       PRES   REMARKS
DULUTH         CLOUDY    56  46  69 S5        29.86F
ELY            RAIN      55  54  94 S7        29.89F
HIBBING        LGT RAIN  56  54  93 SE7       29.87F
EVELETH        TSTM      57  55  94 CALM      29.89S
DULUTH HARBOR  CLOUDY    46  43  87 N5        29.88F
TWO HARBORS    CLOUDY    57  48  72 N3        29.87S
SILVER BAY     CLOUDY    55  52  88 N6        29.88S THUNDER
GRAND MARAIS     N/A     44  40  85 NE3       29.92F
G MARAIS ARPRT RAIN      50  46  87 CALM      29.94S
$$
MNZ029>031-032-039>041-046>048-054>057-064-031100-
   West Central Minnesota

CITY           SKY/WX    TMP DP  RH WIND       PRES   REMARKS
FERGUS FALLS   CLOUDY    64  57  77 S12       29.74F
WHEATON        CLOUDY    63  57  82 SE8       29.76R
MORRIS         CLOUDY    63  57  82 SE10      29.76S
ALEXANDRIA     MOCLDY    62  56  80 S10       29.80F
ELBOW LAKE     FAIR      62  58  87 S13       29.76S
WADENA         CLOUDY    61  55  82 S10       29.76F
GLENWOOD       MOCLDY    63  57  82 S13       29.81S
APPLETON       CLOUDY    64  59  82 S6        29.77S
BENSON         CLOUDY    63  55  77 S7        29.79S
ORTONVILLE     CLOUDY    64  61  88 S3        29.76S
MADISON        CLOUDY    66  61  82 S8        29.77R
WILLMAR        FAIR      64  57  77 S9        29.83S
$$
MNZ033>034-036-042>043-049>051-058-059-031100-
   Central Minnesota

CITY           SKY/WX    TMP DP  RH WIND       PRES   REMARKS
ST CLOUD       CLOUDY    64  55  72 S16G23    29.83F
SAUK CENTRE    FAIR      61  56  83 S9        29.81F
PAYNESVILLE    CLOUDY    61  55  80 SE10G17   29.83F
AITKIN         CLOUDY    61  55  82 S7        29.81R THUNDER
PINE RIVER     MOCLDY    59  55  88 SE5       29.83F
BRAINERD       MOCLDY    61  56  83 S12       29.81F
STAPLES        CLEAR     61  55  82 S13       29.78F
LONG PRAIRIE   FAIR      61  54  77 S12       29.81F
LITTLE FALLS   CLEAR     61  54  77 SE9       29.81F
LITCHFIELD     CLOUDY    64  57  77 SE8       29.84F
BUFFALO        CLOUDY    65  54  69 S8        29.87F
MAPLE LAKE     CLOUDY    65  57  76 SE7       29.86F
$$
MNZ037-044-045-052-053-031100-
   East Central Minnesota

CITY           SKY/WX    TMP DP  RH WIND       PRES   REMARKS
PRINCETON      CLOUDY    66  55  68 SE9       29.86R
MORA           MOCLDY    61  52  72 S6        29.87S
CAMBRIDGE      PTCLDY    66  54  63 SE6       29.85S
RUSH CITY      CLOUDY    63  54  72 S9        29.88S
MOOSE LAKE     CLOUDY    63  52  67 S6        29.83F THUNDER
HINCKLEY       CLOUDY    63  54  72 S7        29.88R
CLOQUET        CLOUDY    52  45  76 CALM      29.86F
MCGREGOR       CLOUDY    61  55  82 S7        29.84R THUNDER
$$
MNZ071>073-080-081-089-090-097-098-031100-
   Southwest Minnesota

CITY           SKY/WX    TMP DP  RH WIND       PRES   REMARKS
MONTEVIDEO     CLOUDY    64  59  82 S8        29.80R
GRANITE FALLS  CLOUDY    65  58  78 SE10      29.82R
CANBY          CLOUDY    67  60  78 SW13G24   29.77R
MARSHALL       CLOUDY    64  55  72 S13G18    29.79R
REDWOOD FALLS  CLOUDY    66  57  72 S13       29.83R
OLIVIA         CLOUDY    61  54  77 S9        29.83R
PIPESTONE      CLOUDY    63  59  88 SW9       29.82S
WINDOM         CLOUDY    64  55  72 S9        29.86R
WORTHINGTON    CLOUDY    63  55  77 S15G22    29.85F
JACKSON        CLOUDY    63  55  77 S14G21    29.86S
TRACY          CLOUDY    65  59  81 S20G28    29.80R
SLAYTON        CLOUDY    63  58  86 S13G22    29.83F
$$
MNZ065>067-074>077-082>085-091>093-031100-
   South Central Minnesota

CITY           SKY/WX    TMP DP  RH WIND       PRES   REMARKS
MANKATO        CLOUDY    63  54  72 S9G16     29.88S
NEW ULM        MOCLDY    64  55  72 S17       29.85S
ST JAMES       MOCLDY    64  57  77 S13       29.87S
FAIRMONT       CLOUDY    63  52  67 S15       29.87S
GLENCOE        CLOUDY    65  58  76 S5        29.86S
FARIBAULT      CLOUDY    63  55  77 S9        29.91S
OWATONNA       CLOUDY    63  54  72 S14       29.91S
WASECA         CLOUDY    63  54  72 S14G20    29.91S
ALBERT LEA     CLOUDY    63  55  77 S12       29.91S
$$
MNZ078>079-086>088-094>096-031100-
   Southeast Minnesota

CITY           SKY/WX    TMP DP  RH WIND       PRES   REMARKS
ROCHESTER      CLOUDY    59  54  83 S12       29.96R
RED WING       MOCLDY    61  54  77 SE6       29.93R
STANTON        CLOUDY    64  55  72 S7        29.90S
DODGE CENTER   MOCLDY    61  55  82 S15G21    29.93R
WINONA         PTCLDY    59  52  77 SE6       29.96S
AUSTIN         MOCLDY    59  54  82 S9G16     29.94R
PRESTON        CLEAR     57  52  85 S10       29.96S
$$
ABBREVIATIONS USED IN REMARKS
   TC - TEMPERATURES IN CELSIUS
  WCI - WIND CHILL INDEX
   HX - HEAT INDEX
  VSB - VISIBILITY
$$


USA.gov is the U.S. government's official web portal to all federal, state and local government web resources and services.